Regional Weather Roundup
Issued by NWS

Home | Current Version | Previous Version | Graphics & Text | Print | Product List | Glossary On
Versions: 1 2 3 4 5 6 7 8 9 10 11 12 13 14 15 16 17 18 19 20 21 22 23 24 25 26 27 28
000
ASUS45 KBOI 292210
RWRID

IDAHO REGIONAL WEATHER ROUNDUP
NATIONAL WEATHER SERVICE BOISE ID
400 PM MDT FRI JUL 29 2016

NOTE: "FAIR" INDICATES FEW OR NO CLOUDS BELOW 12000 FEET
WITH NO SIGNIFICANT WEATHER AND/OR OBSTRUCTIONS TO VISIBILITY

IDZ012-014-292300-
SOUTHWEST IDAHO


CITY           SKY/WX    TMP DP  RH WIND       PRES   REMARKS
BOISE          SUNNY     98  40  13 NW10      29.90F HX  93
CALDWELL       SUNNY     98  51  20 N9        29.87F HX  95
MOUNTAIN HOME  SUNNY    101  40  12 NW16      29.88F HX  96
$$

IDZ016-017-292300-
SOUTHCENTRAL IDAHO


CITY           SKY/WX    TMP DP  RH WIND       PRES   REMARKS
BURLEY         SUNNY     92  44  19 W9        29.98F
JEROME         SUNNY     95  37  13 SW9       29.98F HX  90
TWIN FALLS     SUNNY     95  38  13 NW7G16    30.00F HX  90
$$

IDZ019>023-292300-
SOUTHEAST IDAHO


CITY           SKY/WX    TMP DP  RH WIND       PRES   REMARKS
IDAHO FALLS    SUNNY     91  36  14 VRB6      30.03F
POCATELLO      SUNNY     93  32  11 VRB5      30.01F
REXBURG        SUNNY     89  37  16 SW7       30.04F
$$

IDZ006-010-011-018-031-032-292300-
CENTRAL IDAHO MOUNTAINS


CITY           SKY/WX    TMP DP  RH WIND       PRES   REMARKS
MCCALL         SUNNY     88  35  15 NW7       30.07F
HAILEY         SUNNY     91  36  14 W12       30.04F
STANLEY          N/A     86  22   9 NW6       30.16F
SALMON         SUNNY     91  45  19 NW6       29.94F
CHALLIS        SUNNY     93  34  12 NE6       30.00F
$$

IDZ002-004-006-007-026-292300-
NORTHERN IDAHO


CITY           SKY/WX    TMP DP  RH WIND       PRES   REMARKS
LEWISTON       SUNNY    100  41  13 CALM      29.83F HX  95
LOWELL           N/A    100  47  16 S5        29.82F HX  96
COEUR D`ALENE  SUNNY     95  52  23 SW5       29.87F HX  92
MULLAN PASS    SUNNY     78  44  29 W6        30.17F
$$




USA.gov is the U.S. government's official web portal to all federal, state and local government web resources and services.